sat.trackr.live / text

‹ back to catalog

STARLINK-5514

NORAD 57248 · 2023-094AG

PAYLOAD ACTIVE UNKNOWN

§ Identity

Operator
Country
US
Launch date
2023-07-07
Launch site
AFWTR
Launch vehicle
Mass (kg)
RCS (m²)

Purposes: comms

External: N2YO · Heavens-Above · Gunter

§ Orbital elements

Epoch: 2026-05-24T22:20:39.675264Z

Period
94.27 min
Inclination
43.0024°
Eccentricity
0.0001595
Mean motion
15.27573010 rev/d
Perigee alt
482.0 km
Apogee alt
484.2 km
Semi-major
6,861.2 km
B*
1.4959e-5
RAAN
309.0111°
Arg perigee
270.7088°
Mean anomaly
89.3580°
Rev number
15,890

§ Raw data

STARLINK-55141 57248U 23094AG  26144.93101476  .00000149  00000+0  14959-4 0  99972 57248  43.0024 309.0111 0001595 270.7088  89.3580 15.27573010158905

JSON: /api/v1/satellites/57248 · /tle

For live sub-satellite position, see the globe view (requires WebGL).

§ Visibility from observer

Set your observer location to see the next 7 days of passes ≥ 10°. The values pass through the URL so the page stays shareable.

No JS? Fill the form by hand. The geolocation button needs JavaScript.